Wetbulb
33.93 33.64 35.10 37.41 37.83 37.89 39.38 41.06 42.25 42.74 44.23 45.18 45.49 45.86 47.00 48.36 50.01 51.71 52.15 50.93 52.90 52.79
32.30 31.83 32.94 35.00 37.34 37.42 39.10 40.98 41.64 41.46 42.33 44.63 45.50 46.30 46.91 46.84 47.79 51.65 51.67 51.61 52.11 52.27
31.78 32.28 32.91 34.28 35.33 35.25 36.87 39.42 40.48 40.49 41.44 42.88 44.05 44.99 46.69 47.67 48.60 49.43 51.51 52.59 52.66 53.11
31.54 31.97 32.44 33.25 34.39 34.00 34.77 37.43 39.57 39.84 40.23 41.44 42.43 43.44 44.71 46.34 47.95 49.37 50.83 51.75 52.24 52.41
30.71 30.97 31.12 31.81 32.94 33.13 32.98 36.15 38.93 38.75 39.58 40.07 41.39 43.13 43.70 44.94 47.82 49.90 50.37 51.11 51.62 51.48
29.26 29.94 29.78 30.46 31.49 31.92 32.73 34.88 37.67 37.66 38.83 38.79 39.97 41.83 42.75 43.94 45.08 49.78 50.45 51.10 51.25 51.16
28.25 28.82 29.34 30.03 30.53 31.18 32.49 34.46 35.35 36.34 38.73 38.59 39.23 40.27 41.96 42.92 44.88 50.28 50.79 51.32 50.91 50.31
28.10 28.69 29.03 29.26 29.94 30.82 32.18 32.87 33.59 35.26 37.94 38.14 38.64 39.67 41.42 42.83 44.02 47.96 49.41 50.02 50.26 50.38
27.29 27.69 28.06 28.73 29.15 29.84 30.37 31.20 31.82 33.29 37.40 37.15 39.21 41.04 42.26 42.89 43.16 45.11 48.65 48.27 48.85 48.55
26.44 26.57 27.06 27.53 27.88 28.31 28.91 29.89 30.21 33.00 36.31 37.28 38.90 41.30 41.93 42.84 43.26 44.64 47.08 46.56 46.05 45.51
26.26 26.16 26.64 26.70 26.65 27.21 28.47 28.45 29.44 33.26 36.64 37.28 38.69 40.90 41.52 42.92 43.17 44.30 44.57 45.10 44.72 43.73
26.08 25.86 26.13 25.83 25.93 26.82 27.44 27.92 30.23 34.22 36.43 37.01 37.54 40.37 41.28 42.23 41.96 40.42 40.11 41.40 42.69 42.89
26.42 26.73 26.33 26.08 25.81 26.91 27.63 29.65 32.17 35.05 36.67 37.27 36.78 39.95 41.60 42.66 38.74 35.66 36.45 38.77 41.02 43.41
26.41 27.50 27.64 26.75 26.80 26.95 28.27 30.17 32.30 34.65 34.87 35.17 38.26 40.06 41.40 40.53 37.72 36.85 36.94 37.89 38.95 41.16
MSLP
1022.87 1022.53 1022.04 1021.42 1020.89 1020.20 1019.34 1018.52 1017.79 1017.18 1016.65 1016.21 1015.79 1015.69 1015.37 1015.17 1014.81 1014.53 1014.24 1014.20 1014.30 1014.45
1022.40 1021.91 1021.62 1020.98 1020.32 1019.60 1018.98 1018.24 1017.57 1017.03 1016.50 1016.01 1015.63 1015.28 1014.90 1014.51 1014.27 1013.92 1013.59 1013.40 1013.47 1013.74
1022.12 1021.69 1021.35 1020.74 1019.88 1019.32 1018.73 1018.16 1017.60 1017.05 1016.44 1015.73 1015.19 1014.73 1014.27 1013.89 1013.49 1013.16 1012.81 1012.59 1012.63 1012.87
1021.86 1021.44 1020.94 1020.36 1019.66 1019.07 1018.45 1017.92 1017.33 1016.72 1015.81 1015.05 1014.53 1014.22 1013.73 1013.24 1012.88 1012.30 1011.94 1011.87 1011.72 1012.08
1021.66 1021.16 1020.55 1019.85 1019.20 1018.73 1018.22 1017.50 1016.88 1016.16 1015.24 1014.58 1014.02 1013.57 1013.16 1012.71 1012.09 1011.22 1011.03 1011.08 1011.20 1011.34
1021.39 1020.77 1020.13 1019.47 1018.88 1018.38 1017.73 1016.95 1016.22 1015.66 1014.79 1014.17 1013.65 1013.10 1012.70 1012.18 1011.44 1010.28 1010.12 1010.11 1010.29 1010.54
1021.22 1020.55 1019.86 1019.23 1018.58 1017.93 1017.15 1016.39 1015.72 1015.06 1014.28 1013.61 1013.00 1012.46 1011.91 1011.39 1010.57 1009.21 1008.89 1009.15 1009.36 1009.63
1020.73 1020.11 1019.40 1018.71 1018.02 1017.32 1016.63 1015.88 1015.24 1014.44 1013.47 1012.88 1012.32 1011.66 1011.13 1010.61 1009.98 1009.01 1008.37 1008.04 1008.68 1008.89
1020.28 1019.59 1018.88 1018.16 1017.48 1016.81 1016.09 1015.37 1014.68 1013.82 1012.73 1012.06 1011.52 1010.90 1010.46 1010.00 1009.31 1008.36 1007.74 1007.73 1007.88 1008.37
1019.97 1019.30 1018.63 1017.90 1017.15 1016.35 1015.55 1014.80 1014.04 1012.98 1011.92 1011.31 1010.67 1010.10 1009.55 1009.03 1008.48 1007.68 1006.97 1006.88 1007.24 1007.71
1019.53 1018.84 1018.08 1017.36 1016.60 1015.76 1014.99 1014.25 1013.32 1012.11 1011.20 1010.59 1009.76 1009.24 1008.68 1008.04 1007.57 1006.97 1006.51 1006.56 1006.83 1007.48
1019.11 1018.27 1017.47 1016.70 1015.89 1015.09 1014.37 1013.48 1012.42 1011.35 1010.49 1009.75 1009.00 1008.43 1007.92 1007.32 1006.92 1006.57 1006.38 1006.54 1006.76 1007.03
1018.64 1017.75 1016.88 1016.08 1015.27 1014.46 1013.71 1012.63 1011.61 1010.60 1009.88 1009.21 1008.31 1007.54 1006.86 1006.55 1006.60 1006.61 1006.58 1006.79 1007.10 1007.36
1017.96 1017.01 1016.21 1015.40 1014.60 1013.87 1012.90 1011.91 1011.00 1010.05 1009.39 1008.78 1007.94 1007.03 1006.54 1006.40 1006.42 1006.53 1006.74 1007.06 1007.46 1007.98
Wind_Speed
6 6 7 7 7 7 7 8 9 8 9 10 9 11 11 7 8 8 7 8 7 6
7 9 9 10 8 7 9 8 10 9 10 11 10 10 10 9 10 10 9 9 9 8
10 9 10 10 10 10 10 10 10 10 10 12 10 11 10 9 11 11 9 7 9 9
11 11 11 10 10 10 12 12 11 11 12 12 13 11 11 11 14 15 11 10 10 11
12 12 12 12 11 11 12 12 11 11 12 12 13 12 12 13 14 13 12 11 11 12
13 13 13 13 13 12 12 12 11 11 13 13 14 13 12 13 15 16 13 12 11 10
13 13 13 12 13 12 12 12 12 13 14 14 15 14 13 14 14 15 12 13 12 12
14 14 14 13 12 13 12 12 13 14 15 15 15 12 12 12 13 14 10 11 9 11
15 14 14 14 14 13 14 13 13 14 14 15 11 19 22 19 13 13 15 11 10 9
14 14 14 14 14 14 14 13 14 15 14 14 14 21 23 23 11 12 9 8 8 8
14 14 14 14 14 14 13 13 13 14 13 14 12 21 23 21 12 10 7 9 10 9
15 16 15 15 14 14 13 13 13 13 13 13 13 20 21 17 9 4 4 5 7 10
16 16 15 15 14 13 12 14 11 13 12 15 14 19 22 17 3 4 3 5 6 16
18 17 14 13 12 13 13 13 13 12 10 10 10 6 5 2 3 4 5 6 6 7
Wind_Direction
299 315 299 289 292 295 295 295 303 306 312 303 297 297 295 286 282 250 228 218 219 222
314 319 303 297 291 298 296 294 300 307 303 297 291 287 284 282 278 262 234 216 213 213
311 309 300 298 296 299 297 292 288 292 292 301 288 290 283 276 276 262 250 224 213 213
315 310 301 299 295 297 300 293 284 290 294 302 299 291 286 278 271 257 250 238 214 219
311 307 304 305 301 302 293 290 285 293 293 299 298 290 291 283 283 245 245 235 221 216
308 305 304 304 302 299 293 290 291 294 290 294 297 286 280 278 279 254 238 228 216 211
303 303 299 298 295 295 296 295 295 288 284 293 296 288 282 281 279 265 229 224 215 212
304 302 300 299 298 297 295 294 291 286 284 295 293 287 284 283 284 278 234 214 203 201
305 305 304 302 303 299 296 293 291 287 281 296 286 286 286 283 279 286 234 210 196 184
302 300 299 299 298 295 293 294 288 288 289 290 284 282 286 281 275 281 217 193 182 172
303 300 298 296 294 293 291 292 290 286 288 289 283 283 283 283 276 259 205 188 170 160
305 302 300 297 296 292 292 292 289 287 292 286 289 281 279 277 267 219 168 143 144 136
304 299 294 293 294 291 287 288 289 288 290 291 289 285 273 261 174 138 122 104 121 141
307 300 291 289 290 291 291 290 287 292 291 292 301 330 6 141 146 153 128 125 119 131